GFSSW_925_temp_138.txt.gz
Temp
19 19 20 20 20 21 22 23 23 24 24 24 24 24 24 24 23 22 22 31 31 31 29 28 29 29 28 27 28 27 25 25 27 29 30 28 28 29 29 27 28 27 24 23 21
19 19 20 20 21 21 21 22 23 24 24 25 25 24 24 24 23 22 31 31 31 30 29 29 28 27 26 27 26 25 24 27 28 30 30 28 28 28 28 27 26 25 24 22 22
19 19 20 20 21 21 22 22 23 23 24 24 24 24 24 23 23 27 32 31 30 30 30 30 29 29 29 27 27 26 26 29 30 30 29 29 29 29 27 27 26 24 23 23 22
19 20 20 20 21 21 22 22 23 22 23 24 24 24 23 22 29 31 31 31 30 29 30 29 29 29 28 30 29 29 28 29 31 32 29 29 27 28 28 28 27 25 24 23 22
19 20 20 20 21 21 22 22 23 22 23 23 24 23 23 24 26 31 31 30 29 29 29 28 29 29 30 29 30 28 30 31 30 30 31 29 28 28 28 28 26 25 24 23 22
19 20 20 20 21 22 23 23 23 22 22 23 22 23 21 27 30 31 31 29 29 29 29 29 29 29 30 29 30 30 30 29 30 33 31 30 29 29 28 27 26 25 23 23 23
19 19 20 20 21 22 23 23 23 22 22 22 21 21 22 28 29 30 30 29 29 29 28 30 30 30 30 30 30 30 30 30 33 34 32 30 31 31 27 27 26 25 24 24 23
18 19 20 21 22 23 24 24 23 22 22 22 22 21 24 29 29 29 29 29 29 29 30 30 31 29 30 29 28 28 27 30 32 32 32 32 31 27 27 26 25 25 25 25 24
18 19 20 21 22 24 24 24 22 22 21 22 21 21 27 28 28 30 30 29 29 29 30 31 30 28 28 28 26 25 29 29 31 33 32 32 31 26 26 27 26 25 25 25 24
17 19 20 21 22 24 23 22 22 21 20 20 20 23 26 29 30 30 30 30 30 29 30 30 24 26 24 25 28 29 29 30 31 33 32 31 31 26 26 27 26 26 26 25 25
17 18 20 22 23 24 22 21 20 21 20 25 27 27 29 31 31 30 31 30 30 28 28 28 27 26 27 27 29 30 30 30 33 32 29 30 29 26 26 26 26 26 26 26 26
17 18 20 22 23 22 22 22 23 24 22 23 24 25 27 30 30 31 31 30 29 28 28 27 26 28 28 28 29 28 29 31 31 31 29 28 28 27 26 26 27 26 26 26 26
16 17 19 22 22 22 21 24 24 23 22 25 24 26 28 29 29 29 29 29 30 28 28 27 31 30 30 30 31 30 30 31 32 30 28 28 27 28 27 28 27 26 27 27 26
16 17 19 21 21 21 22 25 25 24 21 26 27 28 29 28 30 30 31 30 30 29 27 28 29 31 32 32 29 31 32 32 31 29 28 28 26 27 27 27 26 26 26 26 25
16 17 18 18 18 18 25 26 26 25 25 29 28 30 27 30 30 30 31 31 29 29 29 30 32 32 32 32 31 32 31 31 30 27 27 28 25 26 26 26 25 24 26 26 25
16 17 17 17 17 24 25 26 26 23 25 30 29 29 29 30 31 30 31 32 30 30 29 29 30 32 32 31 32 29 28 25 22 23 26 27 26 25 24 27 25 25 25 25 25
16 19 16 16 20 24 24 22 22 23 28 30 29 28 28 28 30 30 29 29 28 28 29 30 31 31 33 32 31 28 24 24 27 24 26 25 25 26 26 27 26 25 25 24 25
17 19 20 21 23 22 22 22 24 25 25 29 28 26 28 28 30 30 28 27 28 27 25 28 30 32 32 32 30 27 26 24 28 25 25 24 27 27 26 26 26 26 25 24 24
17 18 17 23 22 21 19 21 22 24 28 30 29 28 28 29 29 29 27 26 27 27 28 27 30 31 31 31 30 29 27 25 22 21 23 23 25 27 25 25 25 24 24 24 24
12 12 15 20 20 19 19 20 22 24 28 29 28 28 27 27 29 27 26 28 29 27 28 28 29 30 31 30 28 29 25 26 21 27 27 24 24 25 26 25 25 24 24 23 23
11 13 18 18 19 16 20 19 23 24 26 28 29 27 27 27 27 26 28 29 29 27 28 26 27 29 30 29 28 28 26 20 20 21 23 23 24 23 25 24 24 24 24 23 22
6 15 18 17 17 12 16 20 23 26 27 28 28 28 27 26 26 26 28 29 28 26 28 26 23 26 29 26 26 28 26 22 23 25 19 21 24 26 23 24 24 24 23 22 23
4 6 18 19 17 16 18 22 24 26 27 28 27 28 28 27 29 27 26 29 27 27 27 25 23 24 25 26 28 27 26 20 19 19 21 23 24 25 24 24 23 23 22 22 21
5 12 12 13 13 18 21 23 24 25 25 26 27 27 29 28 28 28 29 28 27 25 23 22 20 24 25 25 25 27 27 23 22 22 21 21 24 26 26 23 22 22 21 20 20
5 10 11 15 15 17 19 22 23 24 25 24 26 25 27 27 27 28 28 28 27 25 23 23 24 24 23 26 26 27 27 26 27 24 25 25 23 25 24 23 22 21 20 20 20
7 8 8 10 11 15 17 19 22 23 23 25 25 27 24 25 26 26 26 26 28 25 23 20 22 24 23 25 26 26 26 26 26 23 25 25 24 22 22 21 21 21 20 20 20
6 7 7 11 12 15 16 19 21 21 22 23 25 24 25 25 25 24 23 21 24 25 21 21 20 21 23 23 25 25 24 25 25 25 24 24 23 21 22 21 20 19 20 20 20

GFSSW_925_temp_141.txt.gz
Temp
20 20 21 21 21 21 21 22 23 23 24 24 24 24 24 24 24 23 25 30 30 29 29 29 29 29 29 31 30 30 33 32 32 33 34 32 32 31 31 30 29 28 27 26 22
20 20 20 20 21 21 22 22 23 23 23 24 24 24 24 24 23 22 31 31 30 30 30 30 31 30 31 30 30 32 32 32 33 33 33 32 32 31 31 30 28 26 25 23 23
19 20 20 20 21 21 22 22 23 23 23 24 24 24 24 23 25 31 31 30 30 30 31 30 29 31 32 31 31 30 33 32 34 33 33 33 32 32 31 30 29 27 25 24 23
19 20 20 20 21 21 22 22 22 23 22 23 23 24 23 22 31 30 30 30 29 30 30 30 31 32 32 33 31 33 32 32 34 34 33 32 33 32 32 32 31 28 26 25 25
19 20 20 20 21 21 23 23 22 22 22 22 23 23 23 26 29 29 31 30 29 29 30 31 32 32 33 33 32 32 33 34 34 34 32 32 32 31 32 30 29 27 26 26 25
19 19 20 20 21 22 23 23 23 22 22 22 22 22 22 29 28 29 30 29 30 29 29 30 32 32 32 32 32 32 33 34 33 34 33 33 32 33 29 29 28 27 27 27 26
18 19 19 20 21 22 24 23 23 21 22 21 21 21 24 30 28 28 29 29 29 29 31 30 31 32 32 32 32 32 33 34 34 35 33 34 32 32 29 29 28 27 27 26 26
18 19 20 20 21 23 24 24 23 21 22 21 22 21 28 28 28 28 28 28 28 29 29 30 30 32 32 32 32 32 32 36 35 35 32 35 34 29 29 29 28 27 27 26 26
18 18 20 20 21 23 24 23 22 21 21 21 20 22 30 27 27 28 29 29 28 28 29 30 31 31 32 32 33 32 35 34 35 35 35 35 34 29 30 30 29 28 27 27 27
17 18 19 21 21 23 22 21 21 21 20 20 20 25 28 30 29 29 29 29 31 30 31 31 31 32 31 33 34 33 34 33 34 35 35 36 31 29 29 30 29 29 28 28 28
16 18 19 21 21 21 20 20 23 24 21 28 29 29 30 30 29 29 30 30 31 32 32 30 32 33 34 33 32 32 32 33 34 33 35 34 31 30 29 30 30 29 28 28 29
16 17 19 21 22 21 21 24 24 23 26 26 26 27 28 29 31 30 30 32 31 32 30 31 32 33 31 31 31 31 33 34 33 32 34 32 31 30 30 30 31 30 30 30 29
15 16 19 21 21 21 20 23 22 22 26 28 27 28 30 30 32 31 32 31 31 31 31 32 33 31 32 31 33 33 34 33 35 33 32 33 33 31 30 30 30 30 31 30 30
14 16 18 20 21 20 21 23 23 23 28 29 29 31 30 31 32 32 32 33 31 32 31 32 32 32 32 33 34 35 33 34 33 34 34 32 34 31 31 31 31 31 31 31 30
14 15 17 17 17 19 23 24 23 24 28 30 29 29 29 33 32 31 31 33 32 31 31 33 33 32 34 35 34 34 33 33 33 33 33 32 34 35 30 32 32 32 32 31 31
14 15 16 16 16 23 23 24 24 28 27 30 30 30 31 32 32 31 32 33 32 32 31 32 32 33 35 32 33 31 32 31 31 33 33 31 33 34 33 33 35 33 32 31 31
15 17 16 15 21 23 23 25 27 27 29 30 31 30 32 31 31 32 31 31 32 31 32 32 33 33 34 34 32 32 34 33 32 33 33 29 30 34 31 32 33 34 32 31 31
16 18 18 20 21 21 21 27 25 28 29 31 30 30 31 31 32 31 31 31 30 31 31 33 33 34 34 35 35 33 34 33 31 32 32 28 32 34 30 30 31 32 32 31 31
16 17 16 19 20 19 24 26 27 27 30 30 30 31 31 31 32 31 31 32 33 31 33 32 33 33 32 33 34 31 34 31 30 26 31 31 31 32 30 29 30 31 30 30 31
11 10 14 17 18 19 25 25 27 27 28 30 31 31 31 31 31 31 30 32 32 32 32 32 33 32 31 32 31 33 30 32 31 30 30 31 30 33 31 30 30 30 30 30 30
10 17 17 16 17 22 25 25 26 26 27 29 30 30 31 30 32 31 32 32 33 31 32 32 31 32 32 32 33 31 32 29 31 30 32 31 32 31 31 31 30 30 31 30 30
9 19 15 15 22 19 24 24 25 28 28 29 29 30 30 30 31 31 32 33 31 31 31 32 32 32 32 29 29 31 32 32 33 29 28 30 32 31 29 29 30 30 30 30 30
11 13 15 16 22 22 21 25 26 27 28 29 30 30 29 30 30 30 31 30 30 32 31 30 31 31 31 31 31 32 29 28 28 29 28 31 33 29 29 29 29 30 29 27 28
10 17 18 18 17 20 23 25 26 26 28 28 29 29 29 30 29 29 30 29 29 31 24 30 28 33 33 33 32 30 29 29 32 31 30 31 32 31 30 30 29 28 28 28 27
9 15 13 20 20 20 20 24 26 27 27 27 27 29 29 30 30 30 30 29 28 24 26 31 30 28 28 30 31 31 30 29 30 30 32 31 29 31 30 28 28 27 26 26 25
11 12 13 15 15 17 19 23 24 26 27 27 27 28 29 29 31 30 30 30 31 27 28 26 27 28 28 29 30 30 30 30 30 28 29 29 29 29 27 26 26 26 25 25 24
6 7 10 15 16 18 22 23 23 23 25 27 27 28 27 28 30 28 27 28 30 29 27 27 27 28 28 27 29 28 30 30 29 29 30 29 30 27 27 26 25 25 25 25 25

GFSSW_925_temp_144.txt.gz
Temp
20 21 21 21 21 22 22 22 22 23 24 25 25 24 24 24 24 24 30 32 31 30 29 31 31 33 34 36 36 36 38 36 36 37 37 37 36 35 35 33 32 32 32 29 26
20 21 21 21 22 22 22 22 22 23 23 24 25 24 24 24 22 29 31 31 30 30 31 34 35 35 37 37 37 39 38 37 38 37 37 37 37 35 35 33 31 30 29 27 26
20 21 21 21 21 22 22 23 22 23 23 24 24 24 24 24 29 36 30 31 31 30 32 34 35 36 37 37 37 38 38 38 39 38 38 38 37 37 36 35 33 30 29 28 27
19 20 20 21 21 22 23 23 22 23 23 24 23 24 24 21 34 31 30 30 30 30 33 34 36 37 37 37 37 38 38 38 39 38 37 37 37 36 36 35 34 31 30 29 29
18 19 20 21 21 22 23 23 22 23 22 23 23 23 23 30 34 29 30 30 29 31 34 36 36 37 37 37 37 38 38 38 39 39 38 37 37 36 35 35 33 31 30 30 30
18 18 20 21 21 22 23 24 23 22 22 22 23 23 25 32 29 28 29 29 31 33 34 35 36 37 37 37 37 37 38 38 39 38 37 38 36 37 34 34 32 31 31 31 30
18 18 19 20 21 22 23 24 24 22 22 22 23 21 28 33 29 28 29 31 32 34 35 34 35 37 37 37 36 37 37 39 39 39 37 38 36 36 34 34 32 32 32 31 30
18 18 19 20 21 23 23 24 23 22 22 22 22 21 33 28 29 28 30 31 31 32 34 33 34 36 37 36 37 37 38 38 39 39 37 38 36 35 35 34 33 32 32 31 31
17 18 19 20 21 23 22 22 22 22 22 22 22 26 34 28 30 31 31 33 32 32 32 32 35 37 36 37 38 38 38 39 38 39 38 38 37 34 35 35 33 32 32 32 31
16 18 19 20 21 22 21 21 21 21 20 19 22 28 31 33 32 31 31 32 33 34 34 35 36 36 37 37 37 38 38 39 38 39 39 39 37 35 35 35 34 34 33 32 32
16 17 19 20 21 21 20 20 26 27 26 33 34 33 33 33 32 33 32 33 35 35 35 35 36 36 38 38 37 37 38 38 38 38 38 39 38 36 35 36 35 34 33 33 33
15 17 19 20 21 21 21 29 27 26 31 33 32 32 32 34 34 34 33 35 35 35 36 35 35 38 37 36 36 37 38 38 37 37 38 38 38 37 35 36 36 35 34 34 34
14 16 18 20 21 21 23 27 24 25 31 33 33 34 34 34 35 34 35 36 35 36 35 36 37 36 36 36 37 38 38 38 38 37 38 38 37 36 36 36 36 36 36 35 35
13 15 17 20 21 21 27 24 24 24 32 34 33 34 34 35 34 36 35 36 35 35 36 36 37 36 36 37 38 38 38 38 38 38 37 38 37 37 38 36 36 36 36 36 35
13 14 16 16 17 24 25 24 25 27 32 35 33 34 36 35 36 35 35 35 35 35 35 36 36 36 37 38 38 37 38 38 38 38 37 37 37 38 38 37 38 37 37 36 35
13 14 15 15 16 21 22 24 26 31 31 33 34 33 34 35 35 35 34 36 36 36 36 37 37 38 39 38 38 37 37 37 37 38 36 37 37 38 38 38 39 39 38 37 36
14 16 15 14 25 21 22 28 30 31 33 34 34 35 35 35 35 34 34 34 35 33 34 36 37 38 38 37 37 37 37 36 35 36 36 36 36 37 38 37 37 38 39 37 37
14 17 16 18 18 19 24 29 29 33 34 34 35 35 35 36 35 35 35 34 36 37 37 36 35 37 38 38 37 37 38 37 34 35 36 34 35 37 36 36 36 37 39 38 37
14 17 17 19 17 18 27 29 30 32 34 34 34 34 35 35 36 35 35 35 36 36 36 36 37 38 37 38 38 36 36 38 36 36 36 37 36 37 36 36 35 36 38 38 37
10 17 21 18 17 21 27 28 32 34 33 34 34 35 34 35 34 35 35 36 36 36 38 37 36 37 35 37 36 37 38 36 37 34 34 35 34 36 36 36 35 35 36 36 36
13 21 20 18 19 26 28 30 32 33 32 33 34 35 35 35 35 35 36 36 37 36 37 37 36 36 35 36 37 35 36 37 37 36 35 34 36 36 36 36 36 35 36 36 36
15 23 18 18 24 27 28 30 31 32 32 32 33 34 35 36 35 36 36 36 37 38 35 37 37 36 36 35 35 38 38 37 36 33 35 35 35 37 37 36 36 36 35 35 36
17 21 19 20 26 28 28 30 31 32 33 32 33 34 34 35 34 36 36 37 36 37 36 37 35 34 34 35 34 36 37 37 37 36 34 34 36 36 35 35 35 35 36 35 34
16 22 23 21 26 25 28 28 29 31 32 33 33 34 33 33 35 35 36 34 35 37 29 34 36 35 36 36 37 35 35 36 36 35 36 35 36 35 35 34 35 33 34 34 32
16 21 19 24 25 25 28 29 29 30 31 32 32 32 33 32 34 34 36 33 33 27 34 36 35 35 37 37 37 36 36 35 35 36 35 36 35 35 34 32 32 31 32 32 32
16 18 19 20 21 24 22 26 29 30 31 30 30 33 33 32 34 34 34 34 33 32 34 36 34 35 35 35 36 36 36 35 35 36 35 35 34 34 33 33 32 31 30 30 30
13 13 16 20 22 23 25 26 28 30 31 32 31 33 32 33 35 35 35 35 36 34 33 33 33 33 34 34 34 34 35 35 35 35 35 34 34 33 33 32 31 31 30 29 29

GFSSW_925_temp_147.txt.gz
Temp
21 21 21 21 21 21 23 23 24 23 24 25 25 25 25 25 25 25 33 33 33 31 31 34 34 36 38 40 40 41 40 38 38 39 39 40 38 38 38 36 36 35 33 31 27
20 21 21 21 21 21 22 23 24 24 24 25 25 25 25 25 24 32 33 32 32 31 32 36 38 39 40 40 41 41 40 39 40 40 39 39 39 38 37 35 33 32 31 30 30
19 20 21 21 21 22 22 23 24 23 24 24 25 25 25 25 31 37 32 32 32 31 33 37 38 39 40 41 41 41 40 41 41 40 41 40 39 40 38 36 34 32 31 31 31
19 19 20 21 21 22 22 23 24 23 24 24 25 25 25 22 35 33 31 31 32 31 35 37 38 39 40 40 41 40 41 41 41 41 40 39 40 39 39 37 35 33 32 31 32
18 19 19 20 21 22 23 24 24 24 23 24 24 24 24 32 36 31 32 31 30 32 36 38 38 39 40 40 40 40 40 41 41 40 40 40 39 38 37 36 35 34 33 32 32
18 18 19 20 21 22 23 24 24 24 23 23 24 24 26 34 34 31 32 31 34 35 37 38 39 40 40 40 40 40 40 41 41 40 40 39 39 38 37 36 34 33 33 33 33
17 18 19 20 21 22 23 24 24 23 23 23 24 22 31 36 34 33 33 34 35 36 38 38 38 39 40 40 40 40 39 41 41 41 40 40 38 37 37 36 34 34 34 33 33
16 18 19 20 20 21 22 24 24 23 23 23 23 23 34 33 33 33 34 35 35 36 37 38 37 39 39 40 40 40 40 40 41 41 40 40 37 37 37 36 35 34 34 33 33
16 17 19 20 20 21 21 22 22 22 22 23 23 28 36 30 33 34 35 36 35 36 36 36 37 39 40 39 40 40 40 40 40 41 40 40 38 38 38 37 36 35 34 34 33
16 17 18 20 20 21 21 21 21 21 22 22 26 32 34 35 35 35 35 36 37 37 37 37 38 39 39 40 39 40 41 40 39 40 41 40 38 38 39 38 36 36 35 34 34
15 17 18 19 21 22 20 21 26 28 28 35 36 36 37 37 35 35 35 36 37 37 37 38 38 38 40 41 40 41 41 40 41 41 40 41 39 38 39 39 37 36 35 35 34
15 16 18 20 21 22 21 30 32 31 33 35 36 37 36 36 35 37 35 36 36 36 38 38 37 40 41 40 40 40 40 40 40 41 40 40 40 39 39 39 39 38 36 36 36
13 15 18 20 22 22 27 30 29 30 33 37 37 37 36 37 37 37 37 38 37 37 38 38 40 41 39 39 39 40 40 40 40 40 41 40 39 39 39 39 39 39 38 37 37
12 14 17 20 22 26 30 29 29 30 33 36 36 37 38 37 37 38 37 38 38 38 39 39 40 39 39 39 40 40 41 40 40 39 38 40 38 38 39 39 39 39 38 38 37
12 13 16 15 18 28 29 29 29 31 33 39 38 39 39 37 39 38 37 38 38 38 39 38 39 38 38 39 40 40 40 40 40 39 40 39 39 39 40 38 39 39 39 39 38
13 14 14 21 20 24 26 28 30 31 33 36 37 37 37 37 38 38 37 39 39 38 39 40 41 40 40 41 41 41 39 39 39 40 39 39 39 39 40 40 40 40 40 39 38
13 16 15 14 27 26 26 30 31 32 37 37 36 37 38 37 38 37 36 36 37 36 36 38 38 40 41 39 40 39 39 37 37 37 38 40 39 39 40 40 40 41 40 40 39
13 17 17 17 23 24 27 30 30 35 37 39 38 38 37 38 38 37 36 36 37 38 38 37 37 39 40 40 38 38 40 39 36 38 39 39 37 39 40 40 40 39 41 41 40
14 19 22 22 22 23 28 29 31 35 38 37 38 37 37 38 38 37 37 37 38 39 38 38 38 40 40 41 41 39 38 41 39 39 38 39 39 40 40 40 39 39 40 41 40
11 19 23 25 23 24 28 28 33 36 37 37 36 37 37 38 38 38 37 39 38 39 40 40 38 40 40 40 41 40 40 38 39 36 36 38 37 38 38 39 39 38 39 40 40
13 24 26 24 24 27 28 30 32 36 37 36 36 37 38 38 39 38 38 39 39 40 40 40 39 39 39 38 38 38 38 39 40 39 38 37 38 38 38 38 38 38 38 39 39
19 23 25 24 25 28 29 31 30 35 37 36 36 37 38 38 38 38 38 39 40 40 38 39 39 38 38 40 40 40 39 39 38 36 38 37 37 39 38 38 38 39 38 38 39
20 25 25 24 26 28 31 31 33 34 35 35 35 36 37 37 37 38 38 40 40 39 39 39 38 37 38 38 39 38 40 40 39 39 37 37 36 39 38 38 38 38 38 37 37
19 23 25 25 27 28 30 31 32 34 35 36 35 36 36 36 37 37 38 40 40 39 33 37 38 37 38 37 39 37 38 39 39 38 37 38 36 37 37 37 37 37 37 37 36
18 22 26 26 26 27 29 32 31 32 34 34 35 35 36 35 36 36 38 39 38 30 37 38 36 37 38 40 40 39 38 38 38 38 37 38 38 37 36 35 35 35 35 35 35
18 21 24 24 25 27 25 29 31 32 33 32 33 35 36 35 36 36 37 38 36 38 37 38 36 36 37 39 39 39 39 38 38 38 38 38 38 37 35 35 35 34 34 33 33
18 18 19 22 25 25 28 29 30 32 33 34 34 35 35 36 37 38 39 39 38 37 36 37 36 36 35 38 38 36 38 38 38 38 38 37 38 36 35 34 34 33 33 33 32